Terug naar catalogus

LPNTSAT-002

ActiefNavigatieSSO
NORAD 68409·PAYLOAD·🇪🇺 EU

Gelanceerd Mar 28, 2026 vanaf Rocket Lab Launch Complex 1

Loading…

Volgende Passages (komende 24 uur)

TLE

VersSource: Space-Track

Epoch: Sep 14, 2026, 14:31 UTC

1 68409U 26065B   26257.60554634  .00005821  00000-0  27097-3 0  9995
2 68409  97.3851 136.3289 0015001  51.5011 308.7567 15.20210972 25826

Volg LPNTSAT-002 in realtime met AllMySat

Download on the App Store